Location: Codford Saint Peter
(51.1597°N, 2.0531°W)
Time: 02:47:01
(UTC+00:00)

Cosmos 1544 - Visible Passes

Search period start: 27 November 2022 00:00
Search period end: 07 December 2022 00:00
Orbit: 453 x 466 km, 82.5° (Epoch: 26 November)

Date Brightness Start Highest point End Pass type
(mag) Time Alt. Az. Time Alt. Az. Time Alt. Az.
28 Nov 6.1 07:03:14 10° ESE 07:05:21 15° E 07:07:28 10° NE visible
01 Dec 5.5 06:59:35 10° SE 07:02:31 25° E 07:05:28 10° NE visible
01 Dec 5.2 18:16:01 10° N 18:16:45 15° N 18:16:45 15° N visible
02 Dec 6.2 06:28:24 10° ESE 06:30:19 14° E 06:32:15 10° NE visible
02 Dec 3.6 17:43:47 10° N 17:51:08 - SE 17:47:00 33° ENE visible
02 Dec 5.6 19:18:46 10° NW 19:24:26 - SW 19:21:16 20° W visible
03 Dec 4.3 17:11:48 10° NNE 17:14:24 19° ENE 17:16:58 10° ESE visible
03 Dec 4.5 18:45:52 10° NNW 18:49:06 35° W 18:52:19 10° SSW visible
04 Dec 4.4 06:56:16 10° SSE 06:59:38 42° E 07:03:00 10° NNE visible
04 Dec 4.9 16:40:33 10° NE 16:41:40 11° ENE 16:42:47 10° E visible
04 Dec 3.1 18:13:13 10° NNW 18:16:44 71° W 18:20:12 10° S visible
05 Dec 5.7 06:24:28 10° SE 06:27:18 23° E 06:30:09 10° NE visible
05 Dec 2.9 17:40:46 10° N 17:44:15 57° ENE 17:47:41 10° SSE visible
05 Dec 6.4 19:16:57 10° WNW 19:18:19 12° W 19:19:42 10° WSW visible
06 Dec 6.3 05:53:23 10° ESE 05:55:03 13° E 05:56:44 10° ENE visible
06 Dec 3.7 17:08:31 10° N 17:11:40 30° ENE 17:14:48 10° SE visible
06 Dec 5.6 18:43:22 10° NW 18:46:05 21° W 18:48:46 10° SW visible
